This is the latest recevied weather packets stored in our database for station/object IV3CGM-13. If no packets are shown the sender has not sent any weather packets the latest 1 day(s).
| Time | Temp. | Humidity | Pressure | Rain* | Wind** | Luminosity | Snow |
|---|---|---|---|---|---|---|---|
| 1778032104 | 11.11° C | 99% | 1011.9 hPa | 0 mm | 0.89 m/s, 318° | 0 W/m² | - |
| 1778031417 | 11.67° C | 99% | 1012.1 hPa | 0 mm | 1.79 m/s, 306° | 0 W/m² | - |
| 1778030729 | 11.67° C | 99% | 1011.9 hPa | 0 mm | 1.34 m/s, 294° | 0 W/m² | - |
| 1778030042 | 11.67° C | 99% | 1011.9 hPa | 0 mm | 0 m/s | 0 W/m² | - |
| 1778029305 | 11.67° C | 99% | 1011.8 hPa | 0 mm | 0.89 m/s, 306° | 0 W/m² | - |
| 1778028605 | 11.67° C | 99% | 1011.8 hPa | 0 mm | 0 m/s | 0 W/m² | - |
| 1778027917 | 11.67° C | 99% | 1011.8 hPa | 0 mm | 1.34 m/s, 313° | 0 W/m² | - |
| 1778027229 | 11.67° C | 99% | 1012.1 hPa | 0 mm | 1.34 m/s, 300° | 0 W/m² | - |
| 1778026542 | 11.67° C | 98% | 1012 hPa | 0 mm | 0.89 m/s, 300° | 0 W/m² | - |
| 1778025805 | 12.22° C | 99% | 1012.2 hPa | 0 mm | 0.89 m/s, 198° | 0 W/m² | - |
| 1778025104 | 11.67° C | 99% | 1012.4 hPa | 0 mm | 0 m/s | 0 W/m² | - |
| 1778024416 | 11.67° C | 99% | 1012.5 hPa | 0 mm | 0.89 m/s, 186° | 0 W/m² | - |
| 1778023729 | 11.67° C | 99% | 1012.5 hPa | 0 mm | 0 m/s | 0 W/m² | - |
| 1778023041 | 11.67° C | 99% | 1012.5 hPa | 0 mm | 0 m/s | 0 W/m² | - |
| 1778022305 | 11.67° C | 99% | 1012.6 hPa | 0 mm | 0.89 m/s, 186° | 0 W/m² | - |
| 1778021604 | 11.67° C | 99% | 1012.7 hPa | 0.51 mm | 0.89 m/s, 162° | 0 W/m² | - |
| 1778020916 | 11.67° C | 99% | 1012.6 hPa | 0.51 mm | 0.89 m/s, 126° | 0 W/m² | - |
| 1778020229 | 11.67° C | 99% | 1012.7 hPa | 0.51 mm | 0 m/s | 0 W/m² | - |
| 1778019542 | 11.67° C | 99% | 1012.7 hPa | 0.51 mm | 0.89 m/s, 126° | 0 W/m² | - |
| 1778018805 | 11.67° C | 99% | 1012.7 hPa | 1.27 mm | 0 m/s | 0 W/m² | - |
| 1778018104 | 11.67° C | 99% | 1012.9 hPa | 2.03 mm | 0 m/s | 0 W/m² | - |
| 1778017417 | 11.67° C | 99% | 1012.9 hPa | 3.56 mm | 0.89 m/s, 126° | 0 W/m² | - |
| 1778016729 | 11.67° C | 99% | 1013.1 hPa | 4.06 mm | 0 m/s | 0 W/m² | - |
| 1778016041 | 11.67° C | 99% | 1013.2 hPa | 4.83 mm | 0 m/s | 0 W/m² | - |
| 1778015305 | 11.67° C | 99% | 1013.4 hPa | 5.08 mm | 0 m/s | 0 W/m² | - |
* Rain latest hour (hover to see other rain measurements)
** Current wind speed in m/s (hover to see current wind gust speed)